星链-3563 (STARLINK-3563 )

导读

STARLINK-3563是美国SpaceX星链(Starlink)星座中的一颗卫星,于2022年3月3日发射升空。作为星链互联网星座的组成部分,它承担着为全球用户提供低延迟、高速率宽带互联网服务的任务,依托低轨部署,助力实现全球覆盖的卫星互联网组网,推动星链星座的服务能力拓展。

基本信息
目录编号:
51858
目录名称:
STARLINK-3563
国际标识:
2022-022G
轨道中心:
EARTH
卫星名称:
星链-3563
卫星全名:
星链-3563 (STARLINK-3563 )
卫星状态:
在轨 (已飞行1567 天)
发射日期:
2022-03-03 UTC
国别 :
美国 (US)
星等 :
--
轨道信息
数据来源 国际轨道数据
星历时间: 2026-06-17T09:34:27+0800
15小时前
查看轨道信息
半长轴: 6917.9km
偏心率: 0.0001091
轨道倾角: 53.160°
近地点辐角 84.843°
升交点赤经 292.908°
平近点角 275.269°
近地点: 539.008km
远地点: 540.518km
周期: 95.438分钟
每日圈数: 15.088337
详细信息
固有亮度:
5
最大亮度:
2.5
卫星平台:
Starlink v1.5
覆盖范围:
全球
运营商:
太空探索技术公司
运营商所在国:
美国
制造商(研发单位):
太空探索技术公司
制造商所在国:
美国
使用方式:
暂无
卫星简介
星链(Starlink)计划是由太空探索技术公司(SpaceX)提出的一个巨型低轨卫星互联网星座项目,计划在2019年至2024年间在太空搭建由约1.2万颗卫星组成的“星链”网络,其中1584颗将部署在地球上空550千米处的近地轨道,并从2020年开始工作。该卫星仍在工作。
2D轨道图
3D轨道图
轨道高度分析图
轨道倾角分析图
轨道综合分析图
查看轨道综合分析图